User: anonymous   Login
Location: Unspecified
(0.0000°N, 0.0000°E)
Time: 23:29:40
(UTC+02:00)
Language:

GPS 2-12 Rocket1 - Orbit

View from above orbital plane
View from above orbital plane
View from above satellite
View from above satellite

Ground track
Ground track

The orbit data is extracted from the following two-line orbital elements,

1 21891U 92009B   15182.83938029  .00000747  00000-0  41399-4 0  9998
2 21891 019.9974 069.2291 0047775 242.3765 117.1796 14.82167277259812
Epoch (UTC): 01 July 2015 20:08:42
Eccentricity: 0.0047775
inclination: 19.9974°
perigee height: 589 km
apogee height: 656 km
right ascension of ascending node: 69.2291°
argument of perigee: 242.3765°
revolutions per day: 14.82167277
mean anomaly at epoch: 117.1796°
orbit number at epoch: 25981

The dashed part of the orbit path shows where the satellite is in the earth's shadow,  

DLR